EW8103 Weather Reports


Display with metric or nautical units.
time (UTC)temp
F
wind
direction
speed
MPH
gust
MPH
rain 1hr
in
rain 24hr
in
rain mn
in
humidity
%
barometer
mb
20181023065905 42 25 3.0 4.0 0.00 0.00 0.00 87 1027.1
20181023064845 41 9 3.0 4.0 0.00 0.00 0.00 88 1026.9
20181023063832 41 16 2.0 4.0 0.00 0.00 0.00 88 1026.7
20181023062838 41 16 3.0 6.0 0.00 0.00 0.00 87 1026.8
20181023061813 41 24 3.0 6.0 0.00 0.00 0.00 87 1026.7
20181023060757 41 10 2.0 4.0 0.00 0.00 0.00 86 1026.7
20181023055730 41 24 3.0 4.0 0.00 0.00 0.00 85 1026.6
20181023054712 41 11 2.0 4.0 0.00 0.00 0.00 85 1026.6
20181023053713 41 17 2.0 3.0 0.00 0.00 0.00 85 1026.6
20181023052654 41 5 2.0 4.0 0.00 0.00 0.00 84 1026.4
20181023051620 42 24 2.0 5.0 0.00 0.00 0.00 84 1026.6
20181023050557 42 355 2.0 4.0 0.00 0.00 0.00 82 1026.5
20181023045534 42 0 2.0 4.0 0.00 0.00 0.00 82 1026.3
20181023044508 42 0 2.0 3.0 0.00 0.00 0.00 83 1026.1
20181023043509 42 30 1.0 3.0 0.00 0.00 0.00 83 1025.9
20181023042439 42 24 1.0 3.0 0.00 0.00 0.00 83 1025.8
20181023041422 43 351 1.0 4.0 0.00 0.00 0.00 82 1025.9
20181023040429 43 355 2.0 4.0 0.00 0.00 0.00 82 1026.2
20181023035357 43 15 2.0 4.0 0.00 0.00 0.00 82 1026.3
20181023034341 43 5 2.0 4.0 0.00 0.00 0.00 82 1026.3
20181023033332 43 5 2.0 4.0 0.00 0.00 0.00 82 1026.3
20181023032257 43 15 2.0 4.0 0.00 0.00 0.00 82 1026.3
20181023031248 43 17 2.0 4.0 0.00 0.00 0.00 82 1026.3
20181023030257 43 355 1.0 3.0 0.00 0.00 0.00 81 1026.4
20181023025230 43 355 1.0 3.0 0.00 0.00 0.00 80 1026.4
20181023024206 43 5 1.0 3.0 0.00 0.00 0.00 80 1026.4
20181023023138 44 5 2.0 4.0 0.00 0.00 0.00 79 1026.4
20181023022139 44 5 2.0 4.0 0.00 0.00 0.00 78 1026.3
20181023021121 44 349 2.0 4.0 0.00 0.00 0.00 78 1026.2
20181023020111 44 0 2.0 3.0 0.00 0.00 0.00 78 1026.2
20181023015125 44 5 2.0 3.0 0.00 0.00 0.00 77 1026.1
20181023014130 44 355 2.0 4.0 0.00 0.00 0.00 77 1026.1
20181023013128 45 0 2.0 4.0 0.00 0.00 0.00 77 1025.9
20181023012104 45 14 1.0 3.0 0.00 0.00 0.00 77 1025.8
20181023011117 45 14 1.0 2.0 0.00 0.00 0.00 77 1025.9
20181023010138 44 14 1.0 3.0 0.00 0.00 0.00 77 1025.8
20181023005136 44 14 2.0 3.0 0.00 0.00 0.00 78 1025.8
20181023004142 44 13 2.0 4.0 0.00 0.00 0.00 78 1026.0
20181023003122 45 17 2.0 4.0 0.00 0.00 0.00 77 1025.7
20181023002058 45 351 1.0 3.0 0.00 0.00 0.00 77 1025.7
20181023001041 46 0 1.0 2.0 0.00 0.00 0.00 75 1025.7
20181023000014 46 60 1.0 2.0 0.00 0.00 0.00 76 1025.5
20181022234947 46 60 0.0 2.0 0.00 0.00 0.00 76 1025.5
20181022233921 46 60 1.0 2.0 0.00 0.00 0.00 77 1025.5
20181022232918 46 40 1.0 4.0 0.00 0.00 0.00 77 1025.5
20181022231924 46 35 2.0 4.0 0.00 0.00 0.00 77 1025.5
20181022230900 46 21 2.0 3.0 0.00 0.00 0.00 77 1025.4
20181022225842 46 15 1.0 2.0 0.00 0.00 0.00 77 1025.2
20181022224831 45 15 1.0 2.0 0.00 0.00 0.00 78 1025.1
20181022223758 46 15 0.0 2.0 0.00 0.00 0.00 75 1025.0
20181022222813 46 15 2.0 3.0 0.00 0.00 0.00 75 1025.2
20181022221739 46 17 1.0 3.0 0.00 0.00 0.00 75 1025.1
20181022220726 46 338 1.0 3.0 0.00 0.00 0.00 74 1025.0
20181022215708 47 355 1.0 3.0 0.00 0.00 0.00 73 1025.1
20181022214647 47 355 1.0 3.0 0.00 0.00 0.00 73 1025.0
20181022213615 47 14 0.0 2.0 0.00 0.00 0.00 71 1025.2
20181022212622 48 14 0.0 2.0 0.00 0.00 0.00 72 1025.2
20181022211640 47 15 1.0 2.0 0.00 0.00 0.00 72 1025.1
20181022210629 48 15 1.0 2.0 0.00 0.00 0.00 70 1025.1
20181022205625 48 15 1.0 2.0 0.00 0.00 0.00 69 1025.0
20181022204601 48 15 1.0 2.0 0.00 0.00 0.00 69 1025.0
20181022203526 48 15 1.0 3.0 0.00 0.00 0.00 69 1024.9
20181022201502 49 31 2.0 4.0 0.00 0.00 0.00 68 1024.7
20181022200440 49 15 2.0 4.0 0.00 0.00 0.00 67 1024.7
20181022195439 49 19 2.0 4.0 0.00 0.00 0.00 67 1024.4
20181022194501 49 26 2.0 4.0 0.00 0.00 0.00 67 1024.4
20181022193447 49 19 2.0 4.0 0.00 0.00 0.00 67 1024.3
20181022192453 49 28 2.0 4.0 0.00 0.00 0.00 67 1024.3
20181022191514 48 13 2.0 3.0 0.00 0.00 0.00 69 1024.2
20181022190520 48 76 0.0 2.0 0.00 0.00 0.00 70 1024.1
20181022185511 48 76 0.0 1.0 0.00 0.00 0.00 72 1024.1
20181022184511 48 121 0.0 0.0 0.00 0.00 0.00 74 1024.1
20181022183502 48 121 0.0 0.0 0.00 0.00 0.00 74 1024.0
20181022182514 48 121 0.0 0.0 0.00 0.00 0.00 75 1023.8
20181022181533 48 122 0.0 0.0 0.00 0.00 0.00 76 1023.7
20181022180550 49 35 0.0 0.0 0.00 0.00 0.00 74 1023.6
20181022175601 49 35 0.0 1.0 0.00 0.00 0.00 75 1023.5
20181022174547 50 35 0.0 0.0 0.00 0.00 0.00 74 1023.5
20181022173546 50 36 1.0 4.0 0.00 0.00 0.00 75 1023.4
20181022172546 50 32 1.0 4.0 0.00 0.00 0.00 76 1023.4
20181022171518 50 25 1.0 3.0 0.00 0.00 0.00 76 1023.2
20181022170438 50 31 1.0 3.0 0.00 0.00 0.00 76 1023.1
20181022165406 49 31 1.0 2.0 0.00 0.00 0.00 77 1023.1
20181022164342 49 31 0.0 2.0 0.00 0.00 0.00 77 1023.0
20181022163306 50 31 1.0 3.0 0.00 0.00 0.00 76 1023.0
20181022162318 50 31 1.0 3.0 0.00 0.00 0.00 75 1022.8
20181022161314 51 15 1.0 6.0 0.00 0.00 0.00 75 1022.8
20181022160255 51 16 2.0 6.0 0.00 0.00 0.00 74 1022.6
20181022155232 51 26 2.0 8.0 0.00 0.00 0.00 74 1022.4
20181022154204 51 40 3.0 8.0 0.00 0.00 0.00 74 1022.4
20181022153211 51 11 2.0 7.0 0.00 0.00 0.00 74 1022.4
20181022152156 51 15 3.0 7.0 0.00 0.00 0.00 74 1022.3
20181022151127 51 40 2.0 7.0 0.00 0.00 0.00 73 1022.2
20181022150057 51 13 3.0 7.0 0.00 0.00 0.00 73 1021.9
20181022145047 51 16 3.0 7.0 0.00 0.00 0.00 73 1022.0
20181022144034 51 0 3.0 7.0 0.00 0.00 0.00 72 1022.1
20181022143035 51 24 3.0 9.0 0.00 0.00 0.00 72 1022.1
20181022142027 52 28 3.0 9.0 0.00 0.00 0.00 70 1022.0
20181022141045 51 12 4.0 8.0 0.00 0.00 0.00 72 1021.9
20181022140100 51 15 3.0 8.0 0.00 0.00 0.00 73 1021.9
20181022135114 52 31 2.0 7.0 0.00 0.00 0.00 75 1021.8
20181022134057 51 0 3.0 8.0 0.00 0.00 0.00 76 1021.8
20181022133027 53 355 3.0 7.0 0.00 0.00 0.00 76 1021.6
20181022132019 53 348 2.0 7.0 0.00 0.00 0.00 74 1021.6
20181022131029 54 21 2.0 7.0 0.00 0.00 0.00 73 1021.5
20181022130150 54 11 2.0 9.0 0.00 0.00 0.00 73 1021.7
20181022121908 54 39 3.0 7.0 0.00 0.00 0.00 71 1021.8
20181022120834 54 5 3.0 7.0 0.00 0.00 0.00 72 1021.7
20181022115808 54 17 2.0 7.0 0.00 0.00 0.00 72 1021.8
20181022114735 55 46 2.0 7.0 0.00 0.00 0.00 72 1021.7
20181022113703 55 22 2.0 5.0 0.00 0.00 0.00 73 1021.8
20181022112722 54 22 2.0 7.0 0.00 0.00 0.00 74 1021.9
20181022111649 53 13 3.0 7.0 0.00 0.00 0.00 75 1021.9
20181022110709 54 16 3.0 10.0 0.00 0.00 0.00 74 1022.0
20181022105724 54 59 4.0 10.0 0.00 0.00 0.00 71 1022.3
20181022104650 54 20 4.0 9.0 0.00 0.00 0.00 72 1022.1
20181022103710 53 86 3.0 9.0 0.00 0.00 0.00 71 1022.1
20181022102645 53 55 3.0 8.0 0.00 0.00 0.00 74 1022.1
20181022101703 53 68 1.0 8.0 0.00 0.00 0.00 77 1022.2
20181022100627 53 39 0.0 4.0 0.00 0.00 0.00 78 1022.2
20181022095623 52 48 1.0 5.0 0.00 0.00 0.00 79 1022.1
20181022094601 52 62 1.0 5.0 0.00 0.00 0.00 82 1022.1
20181022093616 51 44 1.0 3.0 0.00 0.00 0.00 85 1022.0
20181022092607 50 61 1.0 5.0 0.00 0.00 0.00 85 1022.1
20181022091531 50 61 1.0 4.0 0.00 0.00 0.00 88 1022.1
20181022090517 49 9 0.0 2.0 0.00 0.00 0.00 89 1022.1
20181022085519 49 355 0.0 2.0 0.00 0.00 0.00 90 1022.2
20181022084443 48 21 0.0 1.0 0.00 0.00 0.00 91 1022.2
20181022083348 48 21 0.0 3.0 0.00 0.00 0.00 92 1022.3
20181022082352 47 30 0.0 2.0 0.00 0.00 0.00 92 1022.2
20181022081411 47 57 0.0 3.0 0.00 0.00 0.00 93 1022.1
20181022080424 47 51 0.0 2.0 0.00 0.00 0.00 93 1022.0
20181022075446 46 34 0.0 2.0 0.00 0.00 0.00 94 1021.9
20181022074506 45 350 0.0 2.0 0.00 0.00 0.00 94 1021.9
20181022073449 45 355 0.0 2.0 0.00 0.00 0.00 94 1021.9
20181022072453 45 355 0.0 2.0 0.00 0.00 0.00 94 1021.7
20181022071505 45 355 0.0 1.0 0.00 0.00 0.00 94 1021.6